Lake of the Ozarks Weather Center

Moon Phase Calendar



Lake of the Ozarks Water Level
Online Cameras

 


      

Current Conditions in Four Seasons
8/14/2022 10:17:30 PM

79°F
Feels Like 79
Clouds
Humidity
73%
Pressure
29.97"
Wind
3 mph (NNE)
Dew Point
70°F
UV Index
0/10 (Low)
Visibility
6 mi

Hourly Forecast

Date & Time Sun, Aug 14
10:00 PM
Sun, Aug 14
11:00 PM
Mon, Aug 15
12:00 AM
Mon, Aug 15
1:00 AM
Mon, Aug 15
2:00 AM
Mon, Aug 15
3:00 AM
Mon, Aug 15
4:00 AM
Mon, Aug 15
5:00 AM
Mon, Aug 15
6:00 AM
Mon, Aug 15
7:00 AM
Mon, Aug 15
8:00 AM
Mon, Aug 15
9:00 AM
Mon, Aug 15
10:00 AM
Mon, Aug 15
11:00 AM
Mon, Aug 15
12:00 PM
Mon, Aug 15
1:00 PM
Mon, Aug 15
2:00 PM
Mon, Aug 15
3:00 PM
Mon, Aug 15
4:00 PM
Mon, Aug 15
5:00 PM
Mon, Aug 15
6:00 PM
Mon, Aug 15
7:00 PM
Mon, Aug 15
8:00 PM
Mon, Aug 15
9:00 PM
Mon, Aug 15
10:00 PM
Mon, Aug 15
11:00 PM
Tue, Aug 16
12:00 AM
Tue, Aug 16
1:00 AM
Tue, Aug 16
2:00 AM
Tue, Aug 16
3:00 AM
Tue, Aug 16
4:00 AM
Tue, Aug 16
5:00 AM
Tue, Aug 16
6:00 AM
Tue, Aug 16
7:00 AM
Tue, Aug 16
8:00 AM
Tue, Aug 16
9:00 AM
Tue, Aug 16
10:00 AM
Tue, Aug 16
11:00 AM
Tue, Aug 16
12:00 PM
Tue, Aug 16
1:00 PM
Tue, Aug 16
2:00 PM
Tue, Aug 16
3:00 PM
Tue, Aug 16
4:00 PM
Tue, Aug 16
5:00 PM
Tue, Aug 16
6:00 PM
Tue, Aug 16
7:00 PM
Tue, Aug 16
8:00 PM
Tue, Aug 16
9:00 PM
Condition
Clouds

Clouds

Clouds

Clouds

Clouds

Clouds

Clouds

Clouds

Clouds

Clouds

Clouds

Clouds

Clouds

Clouds

Clouds

Clouds

Clouds

Clouds

Clouds

Clouds

Clouds

Clouds

Clear

Clear

Clear

Rain

Rain

Rain

Rain

Rain

Rain

Rain

Rain

Clouds

Rain

Rain

Rain

Rain

Rain

Rain

Rain

Rain

Rain

Rain

Rain

Rain

Rain

Rain
Temperature 79°F77°F75°F73°F71°F67°F66°F65°F65°F65°F68°F73°F78°F83°F87°F90°F93°F94°F95°F94°F92°F86°F82°F80°F76°F69°F68°F68°F68°F68°F67°F67°F67°F67°F69°F71°F73°F77°F81°F83°F79°F73°F71°F70°F68°F67°F67°F66°F
Feels Like 79°F78°F76°F74°F71°F67°F66°F66°F65°F65°F69°F74°F79°F84°F87°F90°F92°F94°F94°F94°F92°F86°F82°F80°F76°F70°F69°F69°F69°F68°F68°F68°F67°F68°F70°F72°F74°F78°F84°F86°F79°F74°F72°F71°F69°F68°F68°F67°F
Cloudiness 88%86%81%80%83%47%34%38%33%38%77%82%79%68%59%52%18%39%37%35%36%43%1%0%2%3%5%15%97%95%97%97%89%90%51%69%78%83%87%89%100%98%98%97%98%98%100%100%
Visibility 6 mi6 mi6 mi6 mi6 mi6 mi6 mi6 mi6 mi6 mi6 mi6 mi6 mi6 mi6 mi6 mi6 mi6 mi6 mi6 mi6 mi6 mi6 mi6 mi6 mi6 mi5 mi6 mi6 mi6 mi6 mi6 mi6 mi6 mi6 mi6 mi6 mi6 mi6 mi6 mi6 mi4 mi6 mi3 mi5 mi4 mi4 mi5 mi
Precipitation 0%19%20%16%0%0%0%0%0%0%24%17%20%8%8%3%0%0%0%0%0%0%0%7%14%53%70%93%90%84%95%95%98%78%56%86%85%91%76%68%59%64%75%96%100%100%100%100%
Humidity 73%72%75%75%75%78%82%87%91%93%88%76%62%52%44%37%34%32%31%31%34%42%45%47%60%88%93%95%95%95%96%97%98%97%95%92%88%77%67%62%72%89%95%96%98%98%98%98%
Dew Point 70°F68°F67°F65°F62°F59°F60°F61°F61°F62°F64°F64°F64°F63°F62°F60°F60°F60°F59°F59°F59°F60°F58°F58°F61°F65°F66°F66°F66°F66°F66°F65°F65°F66°F67°F68°F68°F68°F68°F68°F68°F69°F69°F68°F67°F66°F66°F65°F
Pressure 29.97"29.97"29.97"29.94"29.94"29.94"29.94"29.94"29.94"29.97"29.97"29.97"30"29.97"29.94"29.94"29.91"29.88"29.85"29.85"29.85"29.85"29.83"29.85"29.91"29.91"29.94"29.91"29.91"29.91"29.91"29.91"29.91"29.91"29.91"29.94"29.91"29.91"29.91"29.88"29.88"29.88"29.85"29.88"29.91"29.88"29.91"29.94"
Wind Speed 4.9 mph3.8 mph3.1 mph3 mph3.8 mph5.1 mph5.4 mph5.5 mph4.9 mph4 mph4.7 mph4.2 mph4.8 mph5.9 mph5.3 mph4.9 mph4.2 mph3.7 mph4 mph4 mph5.3 mph8 mph10.5 mph9.7 mph8.8 mph6.9 mph6.2 mph8.9 mph8.7 mph7.1 mph6.8 mph7.4 mph5.8 mph7.6 mph7.6 mph8.4 mph9.2 mph9.1 mph7.7 mph9.2 mph11.7 mph13 mph14.9 mph12.6 mph9.8 mph11.7 mph9 mph10.2 mph
Wind
Direction
41°
NE
92°
E
107°
ESE
81°
E
53°
NE
47°
NE
56°
NE
56°
NE
73°
ENE
95°
E
106°
ESE
81°
E
67°
ENE
67°
ENE
72°
ENE
87°
E
100°
E
106°
ESE
109°
ESE
95°
E
92°
E
77°
ENE
78°
ENE
97°
E
102°
ESE
96°
E
71°
ENE
91°
E
115°
ESE
113°
ESE
107°
ESE
111°
ESE
94°
E
102°
ESE
104°
ESE
109°
ESE
120°
ESE
120°
ESE
111°
ESE
95°
E
78°
ENE
63°
ENE
74°
ENE
84°
E
89°
E
76°
ENE
93°
E
85°
E

Daily Forecast

Date High Low Precip. Humidity
Today
Aug 14

Rain
94 °F
76 °F
39%
44%
Monday
Aug 15

Rain
95 °F
65 °F
53%
37%
Tuesday
Aug 16

Rain
83 °F
65 °F
100%
62%
Wednesday
Aug 17

Rain
79 °F
63 °F
100%
61%
Thursday
Aug 18

Clear
86 °F
61 °F
0%
36%
Friday
Aug 19

Clouds
88 °F
62 °F
0%
36%
Saturday
Aug 20

Rain
89 °F
65 °F
73%
41%
Sunday
Aug 21

Rain
75 °F
67 °F
100%
93%
Monday
Aug 22

Rain
89 °F
66 °F
100%
53%
Tuesday
Aug 23

Rain
87 °F
63 °F
100%
48%
Wednesday
Aug 24

Rain
80 °F
66 °F
100%
79%
Thursday
Aug 25

Rain
88 °F
66 °F
48%
46%
Friday
Aug 26

Clouds
91 °F
68 °F
41%
44%
Saturday
Aug 27

Clear
87 °F
65 °F
3%
47%
Sunday
Aug 28

Clear
92 °F
69 °F
19%
46%
Monday
Aug 29

Rain
91 °F
74 °F
91%
62%

Temperature 8-14 Day Outlook



Precipitation 8-14 Day Outlook




Quick Links
Lake of the Ozarks News
Lake of the Ozarks Photos
Lake of the Ozarks Videos




About Us
Contact Us
Site Map
Search Site
Advertise With Us
   
Ozarks.USLakes.info
THE LAKE OF THE OZARKS WEBSITE

Copyright 2022, Lakes Online
Privacy    |    Legal